[[{"header":{"parameterUnit":"m.s-1","parameterCategory":1,"la1":30.2991,"la2":30.254,"lo1":-89.0895,"lo2":-89.0444,"dy":0.0017,"dx":0.0017,"nx":28,"ny":28,"refTime":"2025-01-28T03:00:00:Z","depth":0,"parameterNumber":2,"parameterNumberName":"U-component_of_WINDS"},"data":[0,0,0,0,0,0,0,0,0,0,0,0,0,0,0,0,0,0,0,0,0,0,0,0,0,0,0,0,0,0,0,0,0,0,0,0,0,0,0,0,0,0,0,0,0,0,0,0,0,0,0,0,0,0,0,0,0,0,0.8509,0.851,0,0.8598,0.8599,0.86,0.863,0.8629,0.8629,0.8629,0.8721,0.8724,0.8727,0,0,0,0,0,0,0,0,0,0,0,0,0,0.8363,0.8366,0.8508,0.851,0.8511,0.8598,0.8599,0.86,0.863,0.8629,0.8629,0.8628,0.872,0.8723,0.8727,0,0,0,0,0,0,0,0,0,0,0,0,0,0.8437,0.8366,0.8508,0.8536,0.8539,0.8598,0.8599,0.8601,0.863,0.8629,0.8629,0.8628,0.8719,0.8723,0.8727,0.8765,0,0,0.874,0.8742,0,0,0,0,0,0,0,0,0.8432,0.8442,0.8531,0.8534,0.8538,0.8602,0.8582,0.8656,0.863,0.8596,0.8629,0.8628,0.8682,0.8689,0.8707,0.8769,0.8773,0.8741,0.8743,0.8745,0.8746,0,0,0,0,0,0,0,0.8427,0.8438,0.8544,0.8532,0.8536,0.8544,0.8554,0.8596,0.8641,0.8599,0.8601,0.8611,0.8684,0.8703,0.871,0.8775,0.874,0.8744,0.8747,0.8749,0.8871,0.8872,0,0,0,0,0,0,0.8418,0.8434,0.8541,0.8547,0.8483,0.8547,0.8558,0.8582,0.8641,0.8649,0.8611,0.8612,0.8696,0.8705,0.8713,0.8761,0.8745,0.8749,0.8751,0.8871,0.8872,0.8872,0,0,0,0,0,0,0.8414,0.8427,0.8538,0.8491,0.8506,0.855,0.8577,0.8584,0.8604,0.865,0.8659,0.8623,0.8696,0.8707,0.8752,0.8764,0.8751,0.8755,0.887,0.8871,0.8872,0.8856,0,0,0,0,0,0,0.841,0.8426,0.844,0.8491,0.8508,0.8575,0.8578,0.8586,0.8611,0.8612,0.8663,0.8671,0.8697,0.8745,0.8756,0.877,0.8758,0.8869,0.887,0.8872,0.8856,0.8857,0.8857,0,0,0,0,0,0.8405,0.8433,0.8441,0.8454,0.8527,0.8575,0.8585,0.8613,0.8612,0.8627,0.8657,0.867,0.8761,0.875,0.8762,0.8777,0.8868,0.887,0.8872,0.8856,0.8857,0.8857,0,0,0,0,0,0,0.8382,0.844,0.845,0.8495,0.853,0.858,0.86,0.8614,0.865,0.865,0.8684,0.8695,0.8737,0.8762,0.8748,0.8817,0.8815,0.882,0.8799,0.88,0.8801,0.8794,0.8761,0,0,0,0,0,0.8383,0.8417,0.8465,0.85,0.8517,0.8555,0.8577,0.8596,0.8634,0.8649,0.8682,0.8719,0.8756,0.8779,0.8816,0.886,0.8871,0.8876,0.8877,0.8877,0.8881,0.8905,0.8908,0.8878,0.8878,0.8878,0,0,0.8384,0.8419,0.8439,0.8496,0.8526,0.856,0.8568,0.8604,0.863,0.8655,0.8699,0.8724,0.8767,0.8811,0.8832,0.8833,0.8891,0.8879,0.8879,0.8883,0.8907,0.891,0.8912,0.8879,0.8879,0.8879,0,0,0.8403,0.8434,0.8466,0.8495,0.8539,0.8565,0.8572,0.862,0.8638,0.8683,0.8702,0.8733,0.8796,0.8826,0.8849,0.8879,0.8892,0.889,0.8894,0.8917,0.892,0.8922,0.8932,0.8936,0.8893,0.8893,0.8893,0,0.8399,0.8451,0.8481,0.8516,0.8541,0.8564,0.8597,0.8624,0.8678,0.8695,0.8694,0.8774,0.8804,0.8855,0.8862,0.888,0.889,0.8884,0.8917,0.8919,0.8922,0.8932,0.8936,0.8892,0.8892,0.8892,0.8892,0,0.8444,0.848,0.8501,0.8552,0.8579,0.8613,0.8647,0.8671,0.8687,0.8712,0.8757,0.8794,0.8839,0.8852,0.8869,0.8905,0.8904,0.891,0.891,0.8924,0.8934,0.8938,0.8892,0.8892,0.8892,0.8892,0,0,0.8452,0.8519,0.8526,0.8549,0.8599,0.8628,0.8662,0.8705,0.8725,0.8761,0.8791,0.8843,0.8849,0.8875,0.8895,0.8916,0.8936,0.8919,0.892,0.8921,0.8979,0.8974,0.8978,0.8945,0.8946,0.8947,0.8975,0,0.8478,0.8541,0.8568,0.8618,0.8652,0.8674,0.8704,0.8738,0.8763,0.8795,0.8822,0.8858,0.8863,0.8879,0.89,0.8929,0.8948,0.8928,0.8973,0.8974,0.8962,0.8983,0.8979,0.9004,0.8979,0.898,0.898,0,0.8516,0.8552,0.8606,0.8651,0.8667,0.8693,0.8734,0.8765,0.8804,0.882,0.8849,0.8868,0.8905,0.8902,0.8953,0.8938,0.8958,0.8976,0.8977,0.8983,0.8978,0.8989,0.9012,0.9016,0.8987,0.8987,0.8986,0,0.8516,0.8578,0.8618,0.8638,0.8692,0.871,0.8734,0.8772,0.8796,0.8832,0.8848,0.8888,0.891,0.894,0.8969,0.8964,0.9018,0.9017,0.9032,0.9032,0.9043,0.9042,0.9069,0.9056,0.9056,0.9056,0.9056,0,0.8542,0.8574,0.8619,0.8644,0.868,0.8711,0.8746,0.8771,0.8804,0.8834,0.8856,0.8884,0.8921,0.8953,0.8976,0.9015,0.9024,0.9039,0.9044,0.9037,0.9035,0.905,0.9049,0.9057,0.9057,0.9056,0.9056,0,0.8549,0.858,0.8625,0.8673,0.8685,0.871,0.8751,0.8775,0.88,0.8838,0.8848,0.8888,0.8927,0.8958,0.901,0.9025,0.9066,0.9072,0.9052,0.9055,0.9068,0.9067,0.9107,0.9114,0.9096,0.9096,0.9096,0,0.8563,0.8588,0.8638,0.8659,0.8682,0.8717,0.8741,0.8772,0.8797,0.8843,0.8862,0.8902,0.8936,0.8997,0.903,0.9069,0.9077,0.9088,0.9083,0.9074,0.9077,0.9075,0.9078,0.9089,0.9089,0.9089,0.9089,0,0.8585,0.8599,0.8633,0.8673,0.8701,0.8734,0.8767,0.8783,0.8821,0.8847,0.8887,0.8913,0.8965,0.9005,0.9047,0.9071,0.9086,0.909,0.9096,0.9088,0.9075,0.9082,0.9053,0.9089,0.9089,0.9089,0.9089,0.9089,0.8596,0.8619,0.8657,0.8695,0.8723,0.8753,0.8778,0.8806,0.884,0.8884,0.8901,0.8942,0.898,0.9038,0.9062,0.9095,0.9096,0.9104,0.9107,0.9108,0.9107,0.907,0.9103,0.9103,0.9103,0.9103,0.9103,0,0.8619,0.8644,0.8678,0.8724,0.8753,0.8764,0.8801,0.8825,0.8861,0.8895,0.8927,0.8973,0.9011,0.9047,0.9087,0.9106,0.9114,0.9116,0.9115,0.912,0.9103,0.9094,0.9109,0.9109,0.9109,0.9109,0.9109,0.9109,0.8634,0.8673,0.8692,0.8745,0.8771,0.8811,0.8831,0.8859,0.8886,0.8936,0.8968,0.8991,0.9026,0.9069,0.9104,0.9114,0.9128,0.9127,0.9139,0.9122,0.9121,0.912,0.9112,0.913,0.913,0.9153,0.9153,0.9153]},{"header":{"parameterUnit":"m.s-1","parameterCategory":1,"la1":30.2991,"la2":30.254,"lo1":-89.0895,"lo2":-89.0444,"dy":0.0017,"dx":0.0017,"nx":28,"ny":28,"refTime":"2025-01-28T03:00:00:Z","depth":0,"parameterNumber":3,"parameterNumberName":"V-component_of_WINDS"},"data":[0,0,0,0,0,0,0,0,0,0,0,0,0,0,0,0,0,0,0,0,0,0,0,0,0,0,0,0,0,0,0,0,0,0,0,0,0,0,0,0,0,0,0,0,0,0,0,0,0,0,0,0,0,0,0,0,0,0,1.3267,1.3267,0,1.3242,1.3242,1.3242,1.3229,1.3229,1.3229,1.3229,1.32,1.32,1.3199,0,0,0,0,0,0,0,0,0,0,0,0,0,1.3302,1.3302,1.3267,1.3267,1.3267,1.3242,1.3242,1.3242,1.3229,1.3229,1.3229,1.3229,1.3201,1.32,1.3199,0,0,0,0,0,0,0,0,0,0,0,0,0,1.3283,1.3302,1.3267,1.3258,1.3256,1.3242,1.3242,1.3241,1.3229,1.3229,1.3229,1.3229,1.3201,1.32,1.3199,1.3192,0,0,1.3195,1.3195,0,0,0,0,0,0,0,0,1.3284,1.3282,1.3259,1.3258,1.3257,1.3239,1.3244,1.3225,1.3229,1.3239,1.3229,1.3229,1.3213,1.3211,1.3206,1.319,1.3189,1.3195,1.3194,1.3194,1.3194,0,0,0,0,0,0,0,1.3285,1.3283,1.3257,1.3259,1.3257,1.3254,1.3251,1.324,1.3226,1.3238,1.3237,1.3235,1.3212,1.3207,1.3205,1.3189,1.3195,1.3194,1.3193,1.3193,1.3166,1.3166,0,0,0,0,0,0,1.3289,1.3284,1.3258,1.3257,1.3271,1.3253,1.325,1.3244,1.3226,1.3224,1.3235,1.3234,1.3209,1.3207,1.3204,1.3195,1.3194,1.3193,1.3192,1.3166,1.3166,1.3166,0,0,0,0,0,0,1.329,1.3287,1.3259,1.327,1.3266,1.3252,1.3246,1.3244,1.3239,1.3224,1.3221,1.3232,1.3209,1.3206,1.3195,1.3194,1.3192,1.3191,1.3166,1.3166,1.3166,1.3176,0,0,0,0,0,0,1.3291,1.3287,1.3285,1.327,1.3266,1.3251,1.3246,1.3243,1.3237,1.3236,1.3221,1.3218,1.3209,1.3197,1.3194,1.3192,1.319,1.3166,1.3166,1.3166,1.3176,1.3177,1.3177,0,0,0,0,0,1.3292,1.3288,1.3285,1.3282,1.3263,1.3251,1.3249,1.3239,1.3237,1.3234,1.3225,1.3218,1.3195,1.3196,1.3193,1.319,1.3166,1.3166,1.3166,1.3176,1.3177,1.3177,0,0,0,0,0,0,1.3302,1.3286,1.3282,1.3273,1.3264,1.3249,1.3245,1.324,1.323,1.3229,1.3217,1.3213,1.3204,1.3196,1.3198,1.3183,1.318,1.3179,1.3188,1.3189,1.3189,1.3191,1.319,0,0,0,0,0,1.3303,1.3296,1.3282,1.3276,1.3271,1.3259,1.3254,1.3247,1.3236,1.3232,1.3222,1.3211,1.3201,1.3194,1.3184,1.3175,1.3171,1.3172,1.3172,1.3173,1.3172,1.3167,1.3167,1.3166,1.3166,1.3166,0,0,1.3305,1.3296,1.3292,1.3277,1.3269,1.3261,1.3256,1.3248,1.3241,1.323,1.322,1.3212,1.3199,1.3189,1.3184,1.3182,1.3172,1.3173,1.3173,1.3172,1.3167,1.3167,1.3167,1.3166,1.3166,1.3166,0,0,1.3306,1.3298,1.3292,1.3284,1.3272,1.3264,1.3263,1.3249,1.3244,1.3233,1.3225,1.3217,1.32,1.3191,1.3185,1.3182,1.3176,1.3179,1.3182,1.3177,1.3177,1.3177,1.3176,1.3176,1.3179,1.3179,1.3179,0,1.331,1.3298,1.3289,1.3282,1.3276,1.3266,1.326,1.3252,1.3238,1.3233,1.3231,1.321,1.3201,1.3189,1.3188,1.3183,1.3181,1.3181,1.3178,1.3178,1.3177,1.3176,1.3176,1.3179,1.3179,1.3179,1.3179,0,1.3304,1.3296,1.3293,1.328,1.3273,1.3266,1.3255,1.325,1.3244,1.3236,1.3225,1.3214,1.3201,1.3198,1.3192,1.3185,1.3184,1.318,1.3177,1.3178,1.3177,1.3176,1.318,1.318,1.318,1.3179,0,0,1.3309,1.3292,1.3291,1.3285,1.3271,1.3265,1.3257,1.3246,1.3241,1.3231,1.3224,1.3211,1.3207,1.32,1.3192,1.3188,1.3187,1.3184,1.3184,1.3185,1.3178,1.3181,1.3181,1.3182,1.3182,1.3182,1.3179,0,1.3308,1.3295,1.3286,1.3276,1.3269,1.326,1.3254,1.3244,1.3237,1.3229,1.322,1.3211,1.3207,1.3202,1.3197,1.3188,1.3185,1.3188,1.3175,1.3175,1.3179,1.318,1.3183,1.3181,1.3179,1.3179,1.3179,0,1.3304,1.3295,1.3285,1.3273,1.3269,1.3264,1.3253,1.3246,1.3235,1.3229,1.3221,1.3214,1.3205,1.3203,1.319,1.3192,1.3187,1.3181,1.3181,1.3179,1.3177,1.3179,1.318,1.318,1.3178,1.3178,1.3178,0,1.3309,1.3294,1.3287,1.3282,1.3267,1.3263,1.3257,1.3246,1.324,1.323,1.3226,1.3215,1.3209,1.3201,1.319,1.319,1.3179,1.3176,1.3174,1.3174,1.3171,1.3172,1.3172,1.3168,1.3168,1.3168,1.3168,0,1.3307,1.3301,1.3289,1.3284,1.3277,1.3267,1.326,1.3253,1.3243,1.3236,1.3228,1.3221,1.3208,1.32,1.3192,1.3182,1.318,1.3175,1.3173,1.3175,1.3176,1.3171,1.3171,1.3168,1.3168,1.3168,1.3168,0,1.3312,1.3303,1.3294,1.3281,1.3278,1.3273,1.3262,1.3256,1.3249,1.324,1.3237,1.3225,1.3215,1.3204,1.319,1.3184,1.3175,1.3172,1.3179,1.3178,1.3177,1.3177,1.3174,1.3173,1.317,1.317,1.317,0,1.3311,1.3307,1.3294,1.3289,1.3283,1.3276,1.327,1.326,1.3254,1.3241,1.3237,1.3227,1.3218,1.3202,1.3191,1.318,1.3177,1.3177,1.3175,1.3178,1.3177,1.3177,1.3176,1.3177,1.3177,1.3177,1.3177,0,1.3312,1.3308,1.33,1.3291,1.3285,1.3277,1.3268,1.3265,1.3253,1.3247,1.3237,1.323,1.3216,1.3206,1.3193,1.3186,1.3179,1.3178,1.3177,1.318,1.3184,1.3182,1.318,1.3178,1.3178,1.3178,1.3178,1.3178,1.3314,1.3309,1.33,1.3292,1.3285,1.3277,1.3272,1.3264,1.3256,1.3244,1.3239,1.3229,1.3218,1.3201,1.3194,1.3185,1.3183,1.3182,1.3181,1.3181,1.3182,1.3186,1.3183,1.3183,1.3183,1.3183,1.3183,0,1.3314,1.3307,1.33,1.3289,1.3283,1.3278,1.3269,1.3263,1.3255,1.3246,1.3238,1.3226,1.3216,1.3205,1.3194,1.3189,1.3186,1.3187,1.3187,1.3185,1.3184,1.3186,1.319,1.319,1.319,1.319,1.319,1.319,1.3313,1.3305,1.33,1.3289,1.3283,1.3274,1.3269,1.3262,1.3254,1.3242,1.3234,1.3227,1.3217,1.3206,1.3196,1.3193,1.3189,1.319,1.3186,1.3186,1.3185,1.3185,1.3187,1.319,1.319,1.3188,1.3188,1.3188]}]]